| time (UTC) | temp C | wind direction | speed KPH | gust KPH | rain 1hr cm | rain 24hr cm | rain mn cm | humidity % | barometer mb |
| 20260509064436 | 16 | 292 | 0.0 | 0.0 | 0.00 | 0.00 | 0.00 | 86 | 1006.7 |
| 20260509062953 | 16 | 292 | 0.0 | 0.0 | 0.00 | 0.00 | 0.00 | 86 | 1006.7 |
| 20260509061436 | 16 | 50 | 1.6 | 0.0 | 0.00 | 0.00 | 0.00 | 86 | 1006.7 |
| 20260509055936 | 16 | 56 | 3.2 | 0.0 | 0.00 | 0.00 | 0.00 | 85 | 1007.6 |
| 20260509054436 | 16 | 156 | 3.2 | 0.0 | 0.00 | 0.00 | 0.00 | 85 | 1007.6 |
| 20260509052936 | 16 | 330 | 0.0 | 0.0 | 0.00 | 0.00 | 0.00 | 84 | 1007.6 |
| 20260509051527 | 16 | 331 | 1.6 | 0.0 | 0.00 | 0.00 | 0.00 | 83 | 1007.6 |
| 20260509045936 | 16 | 201 | 0.0 | 0.0 | 0.00 | 0.00 | 0.00 | 82 | 1008.4 |
| 20260509044436 | 16 | 80 | 1.6 | 0.0 | 0.00 | 0.00 | 0.00 | 81 | 1008.4 |
| 20260509042936 | 17 | 80 | 0.0 | 0.0 | 0.00 | 0.00 | 0.00 | 80 | 1008.4 |
| 20260509041453 | 17 | 146 | 4.8 | 0.0 | 0.00 | 0.00 | 0.00 | 80 | 1008.4 |
| 20260509035936 | 17 | 220 | 3.2 | 0.0 | 0.00 | 0.00 | 0.00 | 79 | 1008.7 |
| 20260509034436 | 17 | 201 | 1.6 | 0.0 | 0.00 | 0.00 | 0.00 | 79 | 1008.7 |
| 20260509032936 | 17 | 153 | 4.8 | 0.0 | 0.00 | 0.00 | 0.00 | 78 | 1008.7 |
| 20260509031510 | 17 | 146 | 6.4 | 0.0 | 0.00 | 0.00 | 0.00 | 78 | 1008.7 |
| 20260509025936 | 17 | 209 | 4.8 | 0.0 | 0.00 | 0.00 | 0.00 | 77 | 1008.9 |
| 20260509024436 | 17 | 230 | 1.6 | 0.0 | 0.00 | 0.00 | 0.00 | 76 | 1008.9 |
| 20260509022936 | 17 | 189 | 3.2 | 0.0 | 0.00 | 0.00 | 0.00 | 75 | 1008.9 |
| 20260509021436 | 17 | 164 | 9.7 | 0.0 | 0.00 | 0.00 | 0.00 | 74 | 1008.9 |
| 20260509015936 | 17 | 232 | 4.8 | 0.0 | 0.00 | 0.00 | 0.00 | 74 | 1008.1 |
| 20260509014453 | 17 | 212 | 6.4 | 0.0 | 0.00 | 0.00 | 0.00 | 73 | 1008.1 |
| 20260509012940 | 17 | 207 | 9.7 | 0.0 | 0.00 | 0.00 | 0.00 | 73 | 1008.1 |
| 20260509011436 | 17 | 170 | 9.7 | 0.0 | 0.00 | 0.00 | 0.00 | 73 | 1008.1 |
| 20260509005936 | 18 | 180 | 8.0 | 0.0 | 0.00 | 0.00 | 0.00 | 72 | 1007.5 |
| 20260509004436 | 18 | 169 | 6.4 | 0.0 | 0.00 | 0.00 | 0.00 | 73 | 1007.5 |
| 20260509002936 | 18 | 195 | 6.4 | 0.0 | 0.00 | 0.00 | 0.00 | 73 | 1007.5 |
| 20260509001436 | 18 | 185 | 9.7 | 0.0 | 0.00 | 0.00 | 0.00 | 74 | 1007.5 |
| 20260508235936 | 19 | 192 | 0.0 | 0.0 | 0.00 | 0.00 | 0.00 | 74 | 1007.1 |
| 20260508234436 | 20 | 107 | 0.0 | 0.0 | 0.00 | 0.00 | 0.00 | 71 | 1007.1 |
| 20260508233010 | 20 | 72 | 1.6 | 0.0 | 0.00 | 0.00 | 0.00 | 68 | 1007.1 |
| 20260508231436 | 20 | 79 | 0.0 | 0.0 | 0.00 | 0.00 | 0.00 | 65 | 1007.1 |
| 20260508225936 | 21 | 73 | 1.6 | 0.0 | 0.00 | 0.00 | 0.00 | 61 | 1007.4 |
| 20260508224436 | 21 | 73 | 1.6 | 0.0 | 0.00 | 0.00 | 0.00 | 60 | 1007.4 |
| 20260508222936 | 21 | 96 | 3.2 | 0.0 | 0.00 | 0.00 | 0.00 | 56 | 1007.4 |
| 20260508221436 | 21 | 42 | 4.8 | 0.0 | 0.00 | 0.00 | 0.00 | 56 | 1007.4 |
| 20260508215936 | 21 | 57 | 4.8 | 0.0 | 0.00 | 0.00 | 0.00 | 55 | 1007.4 |
| 20260508214453 | 21 | 85 | 3.2 | 0.0 | 0.00 | 0.00 | 0.00 | 54 | 1007.4 |
| 20260508212936 | 21 | 90 | 8.0 | 0.0 | 0.00 | 0.00 | 0.00 | 51 | 1007.4 |
| 20260508211436 | 22 | 132 | 9.7 | 0.0 | 0.00 | 0.00 | 0.00 | 51 | 1007.4 |
| 20260508205953 | 22 | 129 | 8.0 | 0.0 | 0.00 | 0.00 | 0.00 | 50 | 1007.6 |
| 20260508204530 | 22 | 72 | 9.7 | 0.0 | 0.00 | 0.00 | 0.00 | 51 | 1007.6 |
| 20260508202936 | 22 | 225 | 4.8 | 0.0 | 0.00 | 0.00 | 0.00 | 49 | 1007.6 |
| 20260508201436 | 22 | 98 | 9.7 | 0.0 | 0.00 | 0.00 | 0.00 | 50 | 1007.6 |
| 20260508195953 | 21 | 144 | 4.8 | 0.0 | 0.00 | 0.00 | 0.00 | 51 | 1008.6 |
| 20260508194436 | 21 | 83 | 8.0 | 0.0 | 0.00 | 0.00 | 0.00 | 49 | 1008.6 |
| 20260508192936 | 21 | 248 | 4.8 | 0.0 | 0.00 | 0.00 | 0.00 | 50 | 1008.6 |
| 20260508191436 | 21 | 120 | 9.7 | 0.0 | 0.00 | 0.00 | 0.00 | 50 | 1008.6 |
| 20260508185936 | 21 | 48 | 6.4 | 0.0 | 0.00 | 0.00 | 0.00 | 50 | 1009.0 |
| 20260508184436 | 21 | 198 | 0.0 | 0.0 | 0.00 | 0.00 | 0.00 | 51 | 1009.0 |
| 20260508182953 | 21 | 120 | 8.0 | 0.0 | 0.00 | 0.00 | 0.00 | 51 | 1009.0 |
| 20260508181436 | 21 | 115 | 0.0 | 0.0 | 0.00 | 0.00 | 0.00 | 52 | 1009.0 |
| 20260508175936 | 20 | 38 | 9.7 | 0.0 | 0.00 | 0.00 | 0.00 | 51 | 1009.9 |
| 20260508174452 | 20 | 77 | 6.4 | 0.0 | 0.00 | 0.00 | 0.00 | 53 | 1009.9 |
| 20260508172953 | 21 | 194 | 6.4 | 0.0 | 0.00 | 0.00 | 0.00 | 53 | 1009.9 |
| 20260508171436 | 20 | 111 | 12.9 | 0.0 | 0.00 | 0.00 | 0.00 | 54 | 1009.9 |
| 20260508165953 | 20 | 90 | 12.9 | 0.0 | 0.00 | 0.00 | 0.00 | 54 | 1010.5 |
| 20260508164436 | 20 | 147 | 12.9 | 0.0 | 0.00 | 0.00 | 0.00 | 54 | 1010.5 |
| 20260508162936 | 20 | 62 | 6.4 | 0.0 | 0.00 | 0.00 | 0.00 | 56 | 1010.5 |
| 20260508161436 | 20 | 90 | 9.7 | 0.0 | 0.00 | 0.00 | 0.00 | 58 | 1010.5 |
| 20260508155936 | 19 | 114 | 11.3 | 0.0 | 0.00 | 0.00 | 0.00 | 57 | 1010.9 |
| 20260508154436 | 18 | 55 | 17.7 | 0.0 | 0.00 | 0.00 | 0.00 | 57 | 1010.9 |
| 20260508152936 | 18 | 105 | 20.9 | 0.0 | 0.00 | 0.00 | 0.00 | 57 | 1010.9 |
| 20260508151436 | 19 | 102 | 20.9 | 0.0 | 0.00 | 0.00 | 0.00 | 61 | 1010.9 |
| 20260508145936 | 18 | 64 | 17.7 | 0.0 | 0.00 | 0.00 | 0.00 | 62 | 1011.1 |
| 20260508144436 | 18 | 69 | 14.5 | 0.0 | 0.00 | 0.00 | 0.00 | 63 | 1011.1 |
| 20260508142953 | 17 | 62 | 20.9 | 0.0 | 0.00 | 0.00 | 0.00 | 66 | 1011.1 |
| 20260508141436 | 17 | 67 | 11.3 | 0.0 | 0.00 | 0.00 | 0.00 | 69 | 1011.1 |
| 20260508135953 | 17 | 97 | 24.1 | 0.0 | 0.00 | 0.00 | 0.00 | 72 | 1010.3 |
| 20260508134436 | 16 | 119 | 9.7 | 0.0 | 0.00 | 0.00 | 0.00 | 74 | 1010.3 |
| 20260508132936 | 16 | 87 | 9.7 | 0.0 | 0.00 | 0.00 | 0.00 | 78 | 1010.3 |
| 20260508131436 | 16 | 76 | 27.4 | 0.0 | 0.00 | 0.00 | 0.00 | 81 | 1010.3 |
| 20260508125936 | 15 | 69 | 14.5 | 0.0 | 0.00 | 0.00 | 0.00 | 83 | 1009.8 |
| 20260508124436 | 15 | 88 | 4.8 | 0.0 | 0.00 | 0.00 | 0.00 | 85 | 1009.8 |
| 20260508122936 | 15 | 59 | 11.3 | 0.0 | 0.00 | 0.00 | 0.00 | 86 | 1009.8 |
| 20260508121436 | 14 | 45 | 12.9 | 0.0 | 0.00 | 0.00 | 0.00 | 88 | 1009.8 |
| 20260508115936 | 14 | 48 | 4.8 | 0.0 | 0.00 | 0.00 | 0.00 | 89 | 1008.7 |
| 20260508114436 | 14 | 52 | 6.4 | 0.0 | 0.00 | 0.00 | 0.00 | 90 | 1008.7 |
| 20260508112936 | 13 | 70 | 3.2 | 0.0 | 0.00 | 0.00 | 0.00 | 91 | 1008.7 |
| 20260508111436 | 13 | 21 | 3.2 | 0.0 | 0.00 | 0.00 | 0.00 | 90 | 1008.7 |
| 20260508105936 | 13 | 32 | 0.0 | 0.0 | 0.00 | 0.00 | 0.00 | 90 | 1007.9 |
| 20260508104436 | 13 | 45 | 3.2 | 0.0 | 0.00 | 0.00 | 0.00 | 89 | 1007.9 |
| 20260508102936 | 13 | 22 | 4.8 | 0.0 | 0.00 | 0.00 | 0.00 | 89 | 1007.9 |
| 20260508101435 | 13 | 18 | 3.2 | 0.0 | 0.00 | 0.00 | 0.00 | 89 | 1007.9 |
| 20260508095936 | 13 | 21 | 4.8 | 0.0 | 0.00 | 0.00 | 0.00 | 88 | 1007.2 |
| 20260508094436 | 13 | 23 | 3.2 | 0.0 | 0.00 | 0.00 | 0.00 | 88 | 1007.2 |
| 20260508092936 | 13 | 15 | 9.7 | 0.0 | 0.00 | 0.00 | 0.00 | 88 | 1007.2 |
| 20260508091436 | 13 | 44 | 8.0 | 0.0 | 0.00 | 0.00 | 0.00 | 88 | 1007.2 |
| 20260508085953 | 14 | 15 | 6.4 | 0.0 | 0.00 | 0.00 | 0.00 | 87 | 1007.0 |
| 20260508084436 | 14 | 36 | 3.2 | 0.0 | 0.00 | 0.00 | 0.00 | 86 | 1007.0 |
| 20260508082953 | 15 | 30 | 4.8 | 0.0 | 0.00 | 0.00 | 0.00 | 85 | 1007.0 |
| 20260508081436 | 15 | 65 | 0.0 | 0.0 | 0.00 | 0.00 | 0.00 | 85 | 1007.0 |
| 20260508075936 | 15 | 60 | 4.8 | 0.0 | 0.00 | 0.00 | 0.00 | 86 | 1006.7 |
| 20260508074453 | 15 | 37 | 3.2 | 0.0 | 0.00 | 0.00 | 0.00 | 86 | 1006.7 |
| 20260508072936 | 15 | 85 | 3.2 | 0.0 | 0.00 | 0.00 | 0.00 | 85 | 1006.7 |
| 20260508071436 | 16 | 49 | 0.0 | 0.0 | 0.00 | 0.00 | 0.00 | 84 | 1006.7 |
| 20260508065953 | 16 | 51 | 6.4 | 0.0 | 0.00 | 0.00 | 0.00 | 83 | 1006.7 |